Temperature
20 20 20 20 23 24 24 23 23 23 23 22 22 23 23 22 22 20 17 17 17 17 17 17 17 18 18 18 18 18 18 18 18 17 18 18 18 17 17 17 17 17 17 17 17 17 17 17 18
20 20 20 22 24 24 23 23 23 23 22 21 22 22 22 20 19 18 17 17 17 17 17 17 17 18 18 17 17 17 17 17 17 17 17 17 17 17 17 17 17 17 17 17 17 17 17 17 17
20 20 21 24 24 24 23 23 23 22 21 22 22 21 20 19 18 17 17 17 17 17 17 17 17 17 17 17 17 17 17 17 17 17 17 17 17 17 17 17 17 17 17 17 17 17 17 17 17
19 20 22 24 23 23 23 23 23 22 22 21 22 21 19 18 17 17 17 17 17 17 17 17 17 17 17 17 17 17 17 17 17 17 16 16 17 17 17 17 17 17 17 17 17 17 17 17 17
20 22 24 23 23 22 22 22 22 23 22 22 22 21 18 17 17 17 17 17 17 17 17 17 17 17 17 17 17 17 16 16 16 16 16 16 16 16 16 16 16 16 17 17 17 17 17 17 17
21 23 24 23 22 22 22 21 22 23 22 21 21 21 18 17 17 17 17 17 17 17 17 16 17 17 17 17 16 16 16 16 16 16 16 16 16 16 16 16 16 16 16 16 16 16 16 17 17
22 23 23 23 22 22 22 21 22 22 22 21 21 20 18 17 17 17 17 17 17 17 16 16 16 16 17 16 16 16 16 16 16 16 16 16 16 16 16 16 16 16 16 16 16 16 16 16 16
21 23 23 23 22 22 22 21 21 22 21 20 20 21 18 17 17 17 17 16 16 16 16 16 16 16 16 16 16 16 16 16 16 16 16 16 16 16 16 16 16 16 16 16 16 16 16 16 16
20 23 23 22 22 22 22 22 21 20 20 20 19 19 18 17 17 17 17 17 16 16 16 16 16 16 16 16 16 16 16 16 16 16 16 16 16 16 16 16 16 16 16 16 16 16 16 16 16
22 22 22 22 22 22 22 22 21 21 21 20 19 18 17 17 17 17 17 17 17 16 16 16 16 16 16 16 16 16 16 16 16 16 16 16 16 16 16 16 16 16 16 16 16 16 16 16 16
22 22 21 21 21 21 22 21 21 21 21 20 19 18 17 17 17 17 17 17 17 17 16 16 17 17 16 16 16 16 16 16 16 16 16 16 16 16 16 16 16 16 16 16 16 16 16 16 16
22 21 21 21 21 21 22 21 21 21 20 20 19 18 17 17 17 17 17 17 17 16 16 16 17 17 17 16 16 16 16 16 16 16 16 16 16 16 16 16 16 16 16 15 16 16 16 16 16
21 21 20 20 20 21 21 21 21 20 19 19 18 18 18 17 17 17 17 17 17 16 16 16 16 17 17 16 16 16 16 16 16 16 16 16 16 16 16 16 15 16 16 16 16 16 16 16 16
21 21 21 21 21 21 21 21 21 20 19 19 18 18 18 18 17 17 17 17 17 17 17 16 16 16 16 16 16 16 16 16 16 16 16 16 16 16 16 16 15 15 15 16 16 16 15 16 16
21 21 21 21 21 21 21 21 21 19 19 19 19 18 18 17 17 17 17 17 17 17 17 16 16 16 16 16 16 16 16 16 16 16 16 16 15 16 16 16 15 15 15 15 15 15 15 15 15
22 22 21 21 21 21 22 21 21 19 19 19 19 19 18 18 17 17 17 17 17 17 17 16 16 16 16 16 16 16 16 16 16 15 15 16 16 15 15 15 15 15 15 15 15 15 15 15 15
21 21 21 21 22 22 22 21 21 19 20 20 19 19 18 18 18 17 17 17 17 17 17 16 16 16 16 16 16 16 16 15 15 15 15 15 15 15 15 15 15 15 15 15 15 15 15 15 15
21 21 21 21 21 21 21 21 21 19 20 20 20 19 19 19 18 18 17 17 17 17 17 16 16 16 16 16 16 15 15 15 15 15 15 15 15 15 15 15 15 15 15 15 15 15 15 15 15
22 22 21 21 21 21 21 21 21 20 20 20 20 20 19 19 18 18 17 17 17 17 17 16 16 16 16 16 16 15 15 15 15 15 15 15 15 15 15 15 15 15 15 15 15 15 15 15 15
22 21 21 21 21 21 21 21 21 20 20 20 20 20 20 19 18 18 17 17 17 17 17 16 16 16 16 16 15 15 15 15 15 15 15 15 15 15 15 15 15 15 15 15 15 14 15 15 15
21 22 21 21 21 21 21 21 21 21 20 20 20 20 20 19 19 18 18 17 17 17 17 17 16 16 16 16 15 15 15 15 15 15 15 15 15 15 15 15 15 15 15 15 15 14 15 15 15
21 22 21 21 21 21 21 21 22 22 21 21 20 20 19 19 19 18 18 18 17 17 17 17 16 16 16 16 15 15 15 15 15 15 15 15 15 15 15 15 15 15 15 15 15 15 15 15 15
21 21 21 21 21 21 22 21 22 22 21 21 21 20 19 19 19 18 18 18 17 17 17 17 16 16 16 16 16 15 15 15 15 15 15 15 15 15 15 15 15 15 15 15 15 15 15 15 15
21 21 21 21 22 21 22 22 22 22 22 22 22 20 20 19 18 18 18 17 17 17 17 17 17 16 16 16 16 15 15 15 15 15 15 15 15 15 15 15 14 14 14 14 15 15 15 15 15
21 21 21 21 21 21 22 22 22 23 23 23 22 21 20 19 19 18 18 17 17 17 17 17 17 16 16 16 16 15 15 15 15 15 15 15 15 15 15 15 15 15 15 15 15 15 14 14 14
21 22 21 20 21 22 21 21 23 23 22 22 21 20 20 19 19 18 18 18 17 17 17 17 17 16 16 16 16 15 15 15 15 15 15 15 15 15 15 15 15 15 15 15 15 14 14 14 14
21 21 21 21 21 21 22 22 23 22 22 22 21 20 20 19 19 18 18 17 17 17 17 17 17 16 16 16 16 15 15 15 15 15 15 15 15 15 15 15 15 15 14 14 14 14 14 14 14
21 21 21 21 20 21 22 22 22 22 22 22 21 21 20 19 19 18 18 17 17 17 17 17 17 16 16 16 16 16 15 15 15 15 15 15 15 15 14 14 14 14 14 14 14 14 14 14 14
21 21 21 21 21 21 21 22 23 23 22 22 22 21 20 19 18 18 18 17 17 17 17 17 17 16 16 16 16 16 15 15 15 15 15 15 15 15 14 14 14 14 14 14 14 14 14 14 14
22 22 21 21 21 21 21 22 23 23 22 22 21 20 19 19 18 18 17 17 17 17 17 16 16 16 16 16 16 15 15 15 15 15 15 15 15 15 14 14 14 14 14 14 14 14 14 14 14
Wind_Speed
1 1 2 2 3 2 3 3 3 4 4 4 6 4 5 5 4 5 5 7 9 10 11 11 10 10 11 12 13 13 13 12 12 11 11 10 10 10 9 9 9 9 9 9 9 8 8 8 8
1 1 3 3 3 4 4 3 4 5 5 6 6 5 6 6 6 7 7 8 10 10 10 10 11 11 11 12 13 13 13 12 12 11 11 10 10 9 9 9 8 8 9 8 8 8 8 7 7
1 2 2 2 1 2 5 5 7 7 6 4 4 5 5 5 5 5 7 10 10 10 10 11 11 12 12 12 13 12 12 12 11 11 10 9 9 9 8 8 8 8 8 8 7 8 7 7 7
2 2 2 2 5 4 4 5 6 7 5 5 5 7 5 5 4 7 10 10 11 10 11 12 11 12 12 12 13 12 11 11 10 10 9 8 8 8 8 8 7 7 7 7 7 7 7 7 7
2 2 3 4 5 4 4 4 4 5 5 6 6 7 7 5 8 11 11 11 11 11 11 13 12 12 12 11 12 11 11 10 9 9 9 8 8 8 7 7 7 7 6 6 6 6 6 7 7
1 2 4 5 6 5 5 3 4 7 8 7 7 8 6 7 10 10 11 10 10 11 12 13 12 11 12 11 11 11 10 10 9 9 9 8 8 8 7 6 6 6 6 5 5 5 6 6 6
1 1 4 6 6 6 5 3 4 6 8 6 5 7 7 8 10 10 10 10 10 10 10 10 11 12 13 11 11 10 10 9 9 8 8 8 7 7 7 6 6 5 5 5 6 6 6 6 5
1 2 4 4 6 5 6 5 4 5 7 6 4 6 8 10 10 10 10 10 9 9 9 8 8 8 9 11 11 10 10 9 9 8 7 6 6 6 4 5 6 5 5 6 6 7 7 6 6
1 3 4 4 5 6 7 7 5 5 8 6 5 6 11 14 12 11 10 9 8 8 7 7 6 7 7 8 9 9 9 8 7 8 7 3 4 5 5 7 6 5 6 6 6 6 6 5 6
0 2 3 3 4 7 8 7 7 6 8 8 9 11 14 13 12 11 10 10 9 8 7 6 6 7 7 7 7 6 6 6 6 6 6 5 5 5 4 7 6 5 5 6 6 4 4 3 4
2 3 4 5 5 7 8 7 6 6 6 7 10 14 14 13 11 10 10 9 8 7 6 5 5 6 6 6 5 5 5 5 6 6 6 5 4 3 4 4 5 4 3 4 5 4 2 3 3
5 5 5 5 5 6 7 7 6 5 6 7 10 13 14 13 11 10 9 9 8 7 6 5 5 6 6 6 5 5 5 5 5 5 6 5 4 3 4 3 4 3 3 3 2 2 3 3 3
6 6 6 6 6 7 8 7 7 7 8 10 12 12 12 11 10 8 8 8 7 6 5 5 4 5 6 6 4 5 5 5 5 5 4 5 4 3 3 3 3 3 3 2 2 2 3 3 3
7 8 8 7 7 6 7 6 5 7 9 11 12 11 11 10 10 9 8 7 7 6 5 5 5 5 5 5 5 5 5 4 5 4 4 5 4 3 3 3 3 3 3 2 2 3 2 2 3
7 8 7 5 5 5 6 5 5 8 10 10 10 10 10 10 9 9 8 7 7 6 6 6 5 4 4 5 5 4 4 5 4 4 4 4 4 3 3 3 3 3 3 3 2 4 3 3 3
5 6 5 4 4 3 5 4 6 8 9 9 9 9 9 10 10 8 7 7 7 6 6 6 5 5 5 4 4 4 4 4 4 4 3 4 3 3 3 3 3 3 3 3 3 2 2 3 3
5 6 7 5 3 3 4 4 5 6 8 9 9 9 9 10 9 8 7 7 7 7 7 7 6 5 5 5 4 4 4 3 3 3 3 3 3 3 3 3 2 3 3 2 2 3 3 4 4
6 6 5 5 4 4 4 4 6 6 7 8 8 8 8 9 9 8 8 8 7 7 8 7 6 6 6 4 4 3 3 3 3 4 4 4 3 3 3 2 2 3 3 3 3 4 3 3 3
5 5 5 3 3 4 5 5 6 6 7 8 8 8 9 9 8 9 9 9 8 8 8 8 7 6 5 4 3 3 3 2 3 3 4 3 3 3 3 2 3 2 3 3 3 4 5 3 3
6 6 5 4 4 4 5 5 5 7 8 9 9 9 9 9 9 9 10 10 10 9 8 8 8 7 6 4 3 3 3 2 3 3 4 4 3 3 2 2 2 2 3 3 3 2 2 3 1
5 5 5 4 4 4 3 5 7 7 8 8 8 8 9 10 11 11 11 11 10 10 9 8 8 8 7 6 4 4 3 3 3 3 3 4 4 4 3 3 3 3 2 3 2 2 2 2 2
4 3 4 5 5 3 4 3 6 9 10 10 10 9 9 10 10 10 11 12 11 10 9 8 8 8 8 7 5 5 3 3 2 2 3 3 4 4 3 3 3 3 3 3 2 2 1 1 2
2 3 4 4 4 3 5 4 3 8 9 11 11 10 10 10 10 11 11 11 10 10 9 8 8 8 7 7 6 5 4 3 3 3 3 3 3 4 3 3 3 3 3 3 3 2 2 1 1
5 6 4 4 4 4 4 5 3 6 8 9 10 10 11 10 11 10 10 10 10 9 9 8 9 8 7 7 7 6 5 4 4 3 3 3 3 3 4 3 3 3 3 3 3 3 3 2 2
6 5 3 4 4 2 3 4 2 3 5 7 8 8 10 11 11 11 11 11 11 11 10 10 10 9 8 8 7 7 6 5 5 4 3 2 2 2 3 3 3 3 3 3 3 3 3 3 3
6 6 3 2 2 2 3 3 1 2 3 5 6 7 8 10 11 11 12 12 12 12 11 10 11 10 9 8 8 7 7 5 4 4 3 3 2 2 3 3 3 3 4 3 3 3 3 3 3
5 4 3 3 2 2 2 2 2 3 4 5 6 7 9 9 11 11 11 11 12 12 12 11 11 10 10 9 8 7 7 6 5 5 4 3 3 2 3 3 3 4 3 3 3 3 3 3 3
3 3 3 4 2 2 2 2 2 4 4 5 6 7 8 9 10 10 10 11 11 11 11 11 11 11 11 10 8 7 7 6 5 5 4 4 3 3 3 3 3 4 4 3 3 3 3 3 4
6 5 4 4 3 2 1 1 1 1 2 2 3 4 7 8 9 10 10 10 11 11 11 11 11 11 11 10 9 8 7 7 6 5 4 4 4 4 4 3 3 4 4 4 3 3 3 3 3
7 6 6 4 3 3 2 1 3 1 1 2 2 3 5 7 8 9 10 10 10 11 11 11 11 12 11 10 9 8 8 7 7 6 5 5 4 4 4 4 4 4 3 3 3 3 3 3 3
Wind_Direction
229 198 212 228 221 180 114 92 102 111 89 83 91 90 84 56 42 85 109 122 122 127 127 128 122 119 117 115 113 111 109 108 107 106 104 104 99 97 93 92 90 87 85 84 83 84 85 84 81
283 221 233 236 227 162 115 106 106 86 103 111 92 84 78 68 64 97 120 122 125 120 123 123 122 120 119 117 114 110 109 109 107 104 103 101 98 97 93 91 88 85 83 82 84 82 83 81 81
187 241 256 218 174 131 120 110 106 102 106 109 98 74 64 75 90 103 120 129 123 118 120 121 126 125 123 119 115 111 109 107 106 103 101 99 97 95 92 91 87 83 80 79 79 78 77 76 78
227 218 224 178 113 79 102 116 122 121 99 86 105 92 79 67 88 114 128 130 121 117 116 116 120 117 117 116 114 112 109 107 105 103 102 98 96 93 89 87 82 80 78 76 73 74 75 75 73
245 240 175 132 110 97 97 105 124 115 109 102 104 101 91 70 99 116 123 121 117 114 113 115 112 110 113 112 109 108 105 104 103 100 97 92 91 88 86 85 84 81 79 76 72 73 75 76 72
221 226 171 144 125 117 110 106 118 112 109 108 109 107 91 104 112 117 117 114 111 109 111 113 113 110 113 111 109 108 106 105 103 102 98 93 90 88 85 84 83 81 80 76 75 78 83 84 80
260 173 146 136 135 131 120 116 115 115 111 102 112 109 114 116 115 117 114 111 108 107 106 108 113 112 113 109 105 103 102 102 100 98 95 90 84 81 80 85 83 81 80 78 80 82 89 93 92
335 165 144 146 144 129 127 120 101 105 102 101 108 120 135 134 126 121 115 111 107 106 107 109 110 114 117 116 107 101 97 96 95 91 86 96 112 105 98 101 84 84 84 82 82 82 87 92 90
261 187 155 144 142 128 137 128 107 98 109 99 84 97 124 131 131 128 121 116 111 106 108 112 114 110 107 108 111 113 107 100 111 105 97 113 101 100 109 71 75 83 86 86 85 89 95 107 109
192 156 112 96 114 129 135 127 127 129 117 110 106 109 123 134 138 138 135 129 126 123 121 121 121 116 108 103 107 105 105 104 95 89 86 77 73 72 75 98 91 91 99 110 97 114 152 183 118
95 108 105 99 107 127 131 124 128 134 119 122 132 136 139 141 141 140 136 133 130 128 124 119 120 112 109 106 102 96 93 93 92 89 89 76 75 90 87 94 113 111 136 109 123 166 111 94 79
109 94 103 106 112 123 124 125 117 106 98 116 129 139 143 145 144 144 139 136 137 133 125 122 121 113 107 107 104 105 101 93 87 83 76 72 65 65 73 76 72 80 85 86 93 80 88 84 93
115 108 101 101 107 113 116 115 109 105 109 123 129 137 144 144 140 137 136 136 137 139 134 125 121 109 105 98 98 102 97 92 92 80 76 73 70 72 79 79 74 71 80 101 93 85 81 80 73
114 113 108 103 109 114 122 119 122 119 131 136 141 146 149 148 148 147 149 150 148 146 136 128 126 111 109 109 106 95 98 97 85 80 72 66 66 65 68 72 66 63 67 71 85 83 87 86 79
126 123 117 107 118 127 136 130 131 137 146 147 152 152 152 154 156 161 161 158 156 151 143 136 134 126 114 104 99 102 100 96 92 85 71 67 57 52 62 62 73 69 76 86 70 84 86 88 97
155 162 154 134 138 155 183 160 135 151 159 157 160 159 163 165 168 168 169 162 159 155 149 144 146 142 125 116 114 109 100 91 91 88 71 62 61 56 61 63 75 76 76 81 80 79 96 94 92
176 173 165 153 145 163 188 168 150 165 174 170 170 170 173 171 175 173 173 169 166 163 157 155 152 148 133 124 119 108 104 91 83 76 68 57 57 55 70 60 66 80 82 86 87 85 89 97 96
172 170 166 171 151 170 183 179 163 174 186 182 177 179 179 179 178 174 174 174 172 167 161 158 154 152 139 135 131 122 104 93 79 70 61 46 49 55 70 79 79 80 92 96 98 100 92 95 101
173 176 169 162 156 187 199 199 186 182 196 196 191 189 187 186 178 175 176 175 173 172 169 163 164 157 151 147 152 144 128 107 86 72 64 60 57 60 72 72 74 72 93 102 108 107 112 106 105
172 174 166 151 156 199 207 221 212 199 208 208 202 197 191 187 180 178 181 179 180 176 175 171 171 168 164 158 150 139 126 105 82 75 68 54 61 59 67 82 89 91 98 107 101 105 110 104 93
184 190 179 165 157 181 215 221 204 201 208 209 211 208 200 196 191 184 186 184 182 181 178 178 176 171 169 162 151 144 133 136 122 101 78 55 58 64 64 72 78 87 102 100 93 118 124 116 95
184 183 189 191 199 190 220 233 201 197 203 208 207 206 203 197 197 188 188 187 187 184 181 181 178 172 170 169 169 164 160 140 115 101 93 83 66 66 66 76 77 84 85 94 95 78 92 111 116
157 155 189 213 223 223 217 243 196 186 206 208 206 205 205 198 196 191 189 188 186 180 180 179 175 173 172 173 168 173 161 137 122 114 108 94 78 69 71 68 75 81 84 83 74 73 65 75 58
158 160 170 213 229 228 212 231 210 188 204 201 198 202 202 199 196 191 184 180 175 171 173 174 173 170 171 176 174 173 161 154 146 137 121 111 98 82 79 76 81 87 87 87 83 85 80 59 61
198 202 200 203 209 203 162 233 230 166 197 204 198 199 198 196 193 188 182 179 174 172 172 174 175 173 175 178 177 173 170 168 165 156 136 126 111 96 85 83 81 82 83 84 86 91 80 77 69
206 230 240 242 222 164 188 228 156 137 198 202 201 198 194 195 193 189 185 183 179 176 174 177 178 177 176 180 178 175 170 171 159 157 148 136 116 100 98 91 84 83 86 90 86 83 77 72 74
201 216 277 287 265 241 201 201 184 167 175 179 182 187 193 196 193 190 186 185 183 180 179 179 180 179 179 180 178 175 170 168 162 163 152 136 128 113 110 104 100 92 89 90 94 85 80 71 65
227 197 218 236 237 222 210 215 190 165 160 160 173 187 190 187 187 188 187 186 185 183 180 179 182 181 181 181 178 172 172 169 169 165 156 151 144 130 130 118 108 104 99 96 89 88 75 83 74
187 197 222 234 264 272 250 95 72 166 185 183 174 183 188 186 186 185 185 185 182 181 179 179 181 181 180 181 178 174 174 173 173 167 163 162 154 149 144 136 125 112 107 106 103 94 91 83 82
218 219 222 231 228 251 274 70 96 152 179 195 197 191 187 186 184 182 179 177 179 180 181 182 181 180 181 181 178 177 171 174 177 172 168 165 159 154 150 141 136 126 119 113 110 102 96 86 74
Height
1511 1511 1512 1514 1512 1509 1512 1513 1511 1513 1515 1518 1519 1519 1520 1523 1525 1534 1535 1534 1536 1537 1538 1539 1541 1542 1543 1544 1545 1546 1546 1547 1548 1549 1549 1550 1550 1550 1551 1551 1552 1552 1552 1553 1553 1553 1553 1553 1554
1512 1512 1514 1513 1509 1513 1516 1513 1514 1515 1519 1520 1521 1522 1523 1527 1530 1532 1533 1535 1537 1538 1539 1541 1541 1543 1544 1545 1546 1547 1548 1548 1549 1550 1550 1551 1551 1551 1552 1552 1552 1553 1553 1554 1554 1554 1554 1554 1555
1512 1512 1514 1509 1509 1511 1516 1515 1516 1519 1521 1521 1523 1525 1527 1530 1532 1534 1535 1537 1538 1540 1541 1541 1542 1544 1545 1546 1547 1548 1549 1550 1550 1551 1551 1552 1552 1552 1553 1553 1553 1554 1554 1555 1555 1555 1555 1555 1556
1513 1514 1513 1509 1513 1514 1514 1516 1518 1519 1522 1523 1524 1527 1530 1533 1534 1535 1536 1539 1540 1541 1542 1542 1544 1545 1546 1548 1549 1549 1550 1551 1551 1552 1553 1553 1553 1553 1553 1554 1554 1555 1555 1555 1556 1556 1556 1556 1556
1513 1513 1510 1512 1515 1516 1517 1519 1519 1519 1522 1524 1525 1529 1533 1535 1535 1537 1539 1541 1542 1543 1544 1545 1545 1546 1548 1549 1550 1551 1552 1552 1553 1553 1554 1554 1554 1554 1554 1555 1555 1555 1556 1556 1556 1557 1557 1557 1557
1514 1511 1511 1515 1517 1517 1519 1521 1521 1521 1524 1526 1527 1530 1535 1537 1537 1539 1541 1542 1544 1545 1546 1547 1547 1548 1549 1550 1552 1552 1552 1553 1554 1554 1555 1555 1556 1556 1556 1556 1556 1556 1556 1557 1557 1557 1558 1558 1558
1514 1511 1512 1514 1517 1519 1521 1522 1522 1523 1525 1528 1529 1532 1537 1539 1539 1541 1542 1544 1546 1547 1548 1549 1551 1551 1551 1552 1553 1554 1554 1555 1555 1556 1556 1557 1557 1557 1557 1557 1557 1557 1558 1558 1558 1558 1558 1559 1559
1514 1512 1514 1515 1518 1520 1522 1524 1525 1525 1528 1531 1531 1533 1537 1540 1540 1542 1544 1545 1547 1549 1550 1551 1553 1554 1554 1555 1555 1555 1556 1556 1557 1557 1558 1558 1558 1559 1559 1559 1559 1559 1559 1559 1559 1559 1559 1560 1560
1515 1514 1515 1516 1518 1520 1523 1524 1527 1528 1529 1532 1533 1534 1538 1539 1541 1544 1545 1547 1549 1550 1552 1553 1554 1556 1557 1557 1557 1557 1557 1558 1558 1559 1559 1560 1561 1561 1561 1560 1560 1560 1560 1560 1560 1560 1560 1561 1561
1515 1515 1517 1518 1518 1520 1523 1524 1527 1529 1530 1533 1535 1537 1539 1541 1543 1545 1547 1548 1550 1552 1554 1555 1556 1558 1558 1559 1559 1560 1560 1560 1561 1561 1561 1562 1562 1562 1562 1561 1561 1561 1561 1561 1561 1561 1562 1562 1563
1516 1517 1519 1520 1521 1522 1524 1526 1528 1529 1531 1533 1535 1538 1540 1542 1545 1547 1549 1550 1552 1554 1555 1557 1558 1559 1560 1560 1561 1561 1562 1561 1562 1563 1563 1563 1563 1564 1564 1564 1563 1563 1563 1563 1563 1563 1564 1564 1564
1518 1520 1521 1522 1523 1524 1525 1527 1529 1531 1533 1535 1537 1539 1542 1544 1546 1548 1550 1552 1554 1555 1557 1558 1560 1561 1561 1562 1562 1563 1563 1564 1564 1564 1565 1565 1565 1565 1565 1565 1565 1564 1564 1564 1564 1564 1565 1564 1565
1519 1522 1523 1525 1525 1526 1527 1529 1531 1534 1536 1537 1539 1541 1544 1545 1548 1550 1552 1553 1555 1557 1558 1559 1561 1562 1562 1563 1563 1564 1565 1565 1566 1565 1566 1566 1566 1566 1566 1566 1565 1565 1565 1565 1565 1565 1565 1565 1565
1522 1523 1524 1526 1526 1528 1529 1531 1532 1536 1537 1539 1541 1543 1545 1547 1549 1551 1552 1554 1556 1557 1559 1560 1561 1562 1563 1564 1565 1565 1566 1566 1567 1567 1567 1567 1567 1567 1567 1567 1566 1566 1566 1566 1566 1566 1565 1565 1565
1523 1523 1525 1527 1527 1529 1530 1532 1533 1537 1538 1540 1542 1544 1546 1548 1550 1551 1553 1554 1556 1558 1560 1561 1562 1563 1564 1565 1566 1566 1567 1568 1568 1568 1568 1568 1568 1568 1568 1568 1567 1567 1567 1567 1566 1566 1566 1566 1566
1522 1522 1526 1527 1528 1530 1531 1535 1535 1537 1539 1540 1542 1544 1547 1549 1550 1552 1554 1555 1557 1559 1560 1561 1562 1563 1564 1565 1566 1567 1568 1568 1569 1569 1569 1569 1569 1569 1568 1568 1568 1567 1567 1567 1567 1567 1567 1566 1566
1521 1524 1525 1527 1527 1528 1529 1533 1535 1537 1539 1540 1542 1544 1546 1548 1550 1552 1554 1555 1557 1559 1560 1562 1563 1564 1565 1566 1567 1568 1569 1569 1569 1570 1569 1570 1570 1570 1569 1568 1568 1568 1568 1568 1567 1567 1567 1567 1567
1523 1523 1525 1526 1527 1528 1529 1531 1534 1537 1538 1539 1541 1543 1545 1547 1549 1551 1554 1556 1557 1559 1561 1562 1563 1564 1565 1566 1568 1568 1569 1570 1570 1570 1570 1570 1570 1570 1570 1569 1569 1569 1569 1568 1568 1568 1567 1568 1568
1518 1521 1524 1525 1526 1528 1529 1530 1531 1535 1537 1538 1539 1541 1544 1546 1549 1551 1553 1555 1557 1559 1560 1561 1563 1564 1565 1567 1568 1569 1570 1570 1571 1570 1570 1570 1570 1570 1570 1570 1570 1569 1569 1569 1569 1569 1569 1569 1570
1519 1522 1524 1525 1526 1527 1528 1529 1529 1532 1534 1536 1537 1539 1542 1544 1547 1549 1552 1554 1556 1558 1559 1561 1563 1564 1565 1566 1568 1569 1570 1571 1571 1571 1571 1571 1571 1570 1571 1571 1571 1570 1570 1570 1570 1570 1571 1570 1570
1520 1521 1523 1525 1526 1526 1528 1528 1527 1529 1532 1534 1536 1537 1539 1542 1545 1547 1550 1552 1555 1557 1558 1560 1562 1564 1565 1566 1568 1569 1570 1571 1572 1572 1572 1572 1571 1571 1571 1571 1571 1571 1571 1571 1571 1571 1571 1571 1571
1522 1520 1522 1523 1525 1526 1527 1530 1523 1523 1528 1531 1533 1535 1537 1540 1543 1545 1548 1551 1553 1555 1558 1560 1562 1563 1565 1566 1568 1569 1570 1572 1572 1572 1573 1572 1572 1572 1572 1572 1572 1572 1572 1572 1572 1572 1572 1572 1572
1520 1521 1521 1522 1522 1525 1524 1526 1521 1520 1524 1525 1528 1532 1534 1537 1540 1543 1546 1548 1551 1554 1556 1559 1561 1563 1564 1566 1567 1569 1570 1571 1572 1572 1573 1573 1573 1573 1573 1573 1573 1573 1573 1573 1572 1572 1573 1573 1573
1520 1522 1522 1521 1521 1528 1522 1524 1523 1516 1518 1520 1524 1528 1531 1534 1538 1541 1544 1546 1549 1552 1554 1557 1559 1561 1563 1565 1567 1568 1570 1571 1572 1573 1574 1574 1574 1574 1574 1574 1574 1574 1574 1573 1573 1573 1573 1573 1573
1519 1521 1529 1529 1529 1525 1519 1522 1518 1511 1514 1517 1521 1525 1528 1531 1535 1538 1541 1544 1547 1549 1552 1555 1558 1560 1562 1564 1566 1568 1569 1571 1572 1573 1574 1574 1575 1575 1575 1575 1575 1574 1574 1574 1574 1574 1574 1574 1573
1517 1518 1527 1533 1528 1522 1520 1521 1512 1512 1515 1517 1519 1522 1525 1528 1532 1535 1538 1541 1544 1547 1550 1553 1556 1559 1561 1563 1565 1567 1569 1570 1572 1572 1574 1574 1575 1575 1575 1575 1575 1575 1575 1575 1575 1575 1574 1574 1574
1517 1518 1517 1520 1520 1523 1518 1513 1510 1511 1513 1516 1518 1520 1523 1526 1529 1532 1536 1538 1541 1545 1548 1551 1554 1557 1560 1562 1564 1566 1568 1569 1571 1572 1573 1574 1575 1575 1575 1576 1576 1575 1575 1575 1576 1575 1575 1575 1575
1516 1517 1520 1522 1528 1527 1519 1514 1511 1510 1510 1513 1516 1518 1521 1524 1527 1530 1533 1536 1539 1543 1546 1549 1552 1555 1558 1561 1563 1565 1567 1569 1570 1572 1573 1574 1575 1575 1576 1576 1576 1576 1576 1576 1576 1576 1575 1575 1575
1518 1519 1518 1518 1518 1523 1524 1517 1505 1506 1508 1510 1513 1516 1519 1522 1525 1528 1531 1534 1537 1540 1544 1547 1550 1553 1557 1559 1562 1564 1566 1568 1570 1571 1572 1573 1574 1575 1576 1576 1577 1577 1577 1576 1576 1576 1576 1576 1576
1511 1512 1514 1520 1520 1517 1518 1516 1504 1506 1508 1510 1513 1515 1518 1520 1523 1526 1529 1532 1535 1538 1541 1545 1548 1552 1555 1558 1561 1563 1565 1567 1569 1570 1571 1573 1574 1575 1576 1576 1577 1577 1577 1577 1577 1577 1576 1576 1576